Regional Weather Roundup
Issued by NWS Little Rock, AR

Home | Current Version | Previous Version | Text Only | Print | Product List | Glossary On
Versions: 1 2 3 4 5 6 7 8 9 10 11 12 13 14 15 16 17 18 19 20 21 22 23 24 25 26 27 28 29 30 31 32 33 34 35 36 37 38 39 40 41 42 43 44 45 46 47
000
ASUS44 KLZK 290005
RWRLZK

WEATHER ROUNDUP FOR ARKANSAS
NATIONAL WEATHER SERVICE LITTLE ROCK AR
600 PM CST FRI NOV 28 2014

NOTE: "FAIR" INDICATES FEW OR NO CLOUDS BELOW 12,000 FEET WITH NO
SIGNIFICANT WEATHER AND/OR OBSTRUCTIONS TO VISIBILITY.

ARZ001-003-010-029-290100-
NORTHWEST ARKANSAS

CITY           SKY/WX    TMP DP  RH WIND       PRES   REMARKS
FAYETTEVILLE   CLEAR     55  38  52 S16G22    29.95R
6HR MIN TEMP:  55; 6HR MAX TEMP:  60;

FORT SMITH     CLEAR     58  38  47 CALM      29.99S
6HR MIN TEMP:  56; 6HR MAX TEMP:  65;

HARRISON       CLEAR     50  36  58 SE13      29.95F
6HR MIN TEMP:  50; 6HR MAX TEMP:  61;

BENTONVILLE    CLEAR     55  36  47 S9        29.94S
6HR MIN TEMP:  55; 6HR MAX TEMP:  61;

ROGERS         CLEAR     54  37  52 S8        29.94R
6HR MIN TEMP:  53; 6HR MAX TEMP:  60;

SILOAM SPGS    CLEAR     55  36  47 S15       29.95S
6HR MIN TEMP:  55; 6HR MAX TEMP:  61;

HIGHFILL       CLEAR     55  38  52 S14       29.92S
6HR MIN TEMP:  55; 6HR MAX TEMP:  60;

SPRINGDALE     CLEAR     55  37  50 S16G23    29.95F
$$

ARZ004-005-016-290100-
NORTH CENTRAL ARKANSAS

CITY           SKY/WX    TMP DP  RH WIND       PRES   REMARKS
BATESVILLE     CLEAR     48  34  57 SE8       30.06F
6HR MIN TEMP:  48; 6HR MAX TEMP:  55;

FLIPPIN        CLEAR     52  34  50 S6        30.00S
6HR MIN TEMP:  52; 6HR MAX TEMP:  57;

MTN HOME       CLEAR     49  34  56 S9        29.99S
6HR MIN TEMP:  49; 6HR MAX TEMP:  57;

$$

ARZ040-041-290100-
WEST CENTRAL ARKANSAS

CITY           SKY/WX    TMP DP  RH WIND       PRES   REMARKS
MENA           CLEAR     57  43  58 CALM      30.05S
MOUNT IDA      CLEAR     54  39  57 VRB3      30.04F
6HR MIN TEMP:  54; 6HR MAX TEMP:  60;

$$

ARZ009-017-025-026-028-290100-
NORTHEAST ARKANSAS

CITY           SKY/WX    TMP DP  RH WIND       PRES   REMARKS
CORNING        FAIR      46  36  66 S14       30.07F
JONESBORO      CLEAR     47  34  60 S12       30.10S
6HR MIN TEMP:  46; 6HR MAX TEMP:  53;

NEWPORT        CLEAR     45  37  73 S12       30.10F
6HR MIN TEMP:  45; 6HR MAX TEMP:  55;

WALNUT RIDGE   CLEAR     46  34  61 S16G22    30.08R
6HR MIN TEMP:  46; 6HR MAX TEMP:  52;

BLYTHEVILLE    CLEAR     46  30  53 S8        30.11F
6HR MIN TEMP:  46; 6HR MAX TEMP:  53;

$$

ARZ022-023-033-042-044-290100-
CENTRAL ARKANSAS

CITY           SKY/WX    TMP DP  RH WIND       PRES   REMARKS
LITTLE ROCK    CLEAR     50  35  56 S6        30.10F
6HR MIN TEMP:  50; 6HR MAX TEMP:  60;

N LITTLE ROCK  CLEAR     53  39  59 S8        30.10F
6HR MIN TEMP:  51; 6HR MAX TEMP:  58;

JACKSONVILLE   CLEAR     49  36  58 SE2       30.09F
6HR MIN TEMP:  49; 6HR MAX TEMP:  58;

SEARCY         CLEAR     48  38  68 S10       30.10F
6HR MIN TEMP:  46; 6HR MAX TEMP:  55;

HOT SPRINGS    CLEAR     54  38  54 S5        30.09S
6HR MIN TEMP:  51; 6HR MAX TEMP:  60;

RUSSELLVILLE   CLEAR     51  38  60 SE3       30.04F
6HR MIN TEMP:  50; 6HR MAX TEMP:  60;

CLINTON        FAIR      50  36  57 S3        30.07S
$$

ARZ036-290100-
EAST ARKANSAS

CITY           SKY/WX    TMP DP  RH WIND       PRES   REMARKS
WEST MEMPHIS   CLEAR     47  31  53 S14       30.13F
6HR MIN TEMP:  47; 6HR MAX TEMP:  53;

$$

ARZ050-053-066-070-073-290100-
SOUTHWEST ARKANSAS

CITY           SKY/WX    TMP DP  RH WIND       PRES   REMARKS
ARKADELPHIA    FAIR      47  41  80 S3        30.10F
6HR MIN TEMP:  48; 6HR MAX TEMP:  63;

CAMDEN         CLEAR     54  36  50 MISG      30.13S
TEXARKANA      CLEAR     56  43  61 S8        30.09F
6HR MIN TEMP:  55; 6HR MAX TEMP:  64;

EL DORADO      CLEAR     52  38  58 S7        30.14F
6HR MIN TEMP:  52; 6HR MAX TEMP:  62;

DE QUEEN       CLEAR     57  44  62 SE5       30.05S
6HR MIN TEMP:  56; 6HR MAX TEMP:  65;

$$

ARZ056-057-069-290100-
SOUTHEAST ARKANSAS

CITY           SKY/WX    TMP DP  RH WIND       PRES   REMARKS
PINE BLUFF     CLEAR     49  36  61 S8        30.13F
6HR MIN TEMP:  48; 6HR MAX TEMP:  59; 6HR PCP: TRACE;

STUTTGART      CLEAR     52  36  54 S12       30.13S
6HR MIN TEMP:  50; 6HR MAX TEMP:  55;

MONTICELLO     CLEAR     52  36  54 S8        30.15F
6HR MIN TEMP:  52; 6HR MAX TEMP:  60;


$$




USA.gov is the U.S. government's official web portal to all federal, state and local government web resources and services.